This is the latest recevied weather packets stored in our database for station/object CA3VLN-10. If no packets are shown the sender has not sent any weather packets the latest 10 day(s).
| Time | Temp. | Humidity | Pressure | Rain* | Wind** | Luminosity | Snow |
|---|---|---|---|---|---|---|---|
| 1777676560 | 18.89° C | 52% | 1009.4 hPa | - | - | - | - |
| 1777675660 | 18.89° C | 51% | 1009.3 hPa | - | - | - | - |
| 1777674760 | 19.44° C | 51% | 1009 hPa | - | - | - | - |
| 1777673985 | 19.44° C | 50% | 1009.1 hPa | - | - | - | - |
| 1777673861 | 19.44° C | 50% | 1009.1 hPa | - | - | - | - |
| 1777672960 | 20° C | 48% | 1009.2 hPa | - | - | - | - |
| 1777672059 | 20.56° C | 46% | 1009.3 hPa | - | - | - | - |
| 1777671159 | 21.11° C | 45% | 1009.3 hPa | - | - | - | - |
| 1777670259 | 21.67° C | 43% | 1009.5 hPa | - | - | - | - |
| 1777669359 | 22.22° C | 42% | 1009.7 hPa | - | - | - | - |
| 1777668459 | 22.78° C | 41% | 1009.9 hPa | - | - | - | - |
| 1777667559 | 23.33° C | 40% | 1009.6 hPa | - | - | - | - |
| 1777666658 | 23.89° C | 39% | 1009.4 hPa | - | - | - | - |
| 1777665758 | 24.44° C | 38% | 1009.4 hPa | - | - | - | - |
| 1777664858 | 24.44° C | 37% | 1009.3 hPa | - | - | - | - |
| 1777663958 | 25° C | 37% | 1009.2 hPa | - | - | - | - |
| 1777663058 | 25° C | 36% | 1009.1 hPa | - | - | - | - |
| 1777662158 | 25° C | 36% | 1009 hPa | - | - | - | - |
| 1777661258 | 25.56° C | 36% | 1008.7 hPa | - | - | - | - |
| 1777660358 | 25.56° C | 36% | 1008.6 hPa | - | - | - | - |
| 1777659458 | 25.56° C | 36% | 1008.7 hPa | - | - | - | - |
| 1777658558 | 25.56° C | 37% | 1008.6 hPa | - | - | - | - |
| 1777657657 | 25.56° C | 36% | 1008.5 hPa | - | - | - | - |
| 1777656757 | 25° C | 36% | 1008.4 hPa | - | - | - | - |
| 1777655857 | 25.56° C | 36% | 1008.5 hPa | - | - | - | - |
* Rain since midnight (hover to see other rain measurements)
** Current wind speed in m/s (hover to see current wind gust speed)